This demonstration page uses our WeatherBlox Daily Observations layout. Learn more.

Left ArrowRight Arrow

39.12711, -84.51439

Hourly Observations for August 11, 2016

Temp ( °F °C ) Dew Point ( °F °C ) Humidity (%) Winds ( mph kmh ) Pressure ( in mb ) Visibility ( mi km ) Precip ( " mm )
12:53 am 00:53 Clear 74 23.3 74 23.3 100 100 N N/A 30.08 1019 9 14 N/A
1:53 am 01:53 Clear 73 22.8 73 22.8 100 100 NNE 3 6 30.08 1019 8 13 N/A
2:53 am 02:53 Cloudy 75 23.9 75 23.9 100 100 N N/A 30.08 1019 9 14 N/A
3:53 am 03:53 Cloudy 75 23.9 75 23.9 100 100 N N/A 30.07 1018 9 14 N/A
4:53 am 04:53 Cloudy 75 23.9 75 23.9 100 100 N N/A 30.06 1018 10 16 N/A
5:53 am 05:53 Mostly Cloudy 74 23.3 74 23.3 100 100 N N/A 30.06 1018 8 13 N/A
6:53 am 06:53 Partly Cloudy with Mist and Fog 73 22.8 73 22.8 100 100 NNE 3 6 30.07 1018 6 10 N/A
7:53 am 07:53 Mostly Sunny 77 25 76 24.4 96 96 N N/A 30.08 1019 10 16 N/A
8:53 am 08:53 Sunny 80 26.7 77 25 90 90 S 5 7 30.08 1019 10 16 N/A
9:53 am 09:53 Sunny 83 28.3 77 25 82 82 S 7 11 30.08 1019 10 16 N/A
10:53 am 10:53 Partly Cloudy 85 29.4 77 25 77 77 S 5 7 30.07 1018 10 16 N/A
11:53 am 11:53 Partly Cloudy 87 30.6 76 24.4 70 70 S 6 9 30.06 1018 10 16 N/A
12:53 pm 12:53 Mostly Cloudy 85 29.4 74 23.3 70 70 SW 8 13 30.06 1018 10 16 N/A
1:53 pm 13:53 Sunny 89 31.7 77 25 68 68 S 13 20 30.03 1017 10 16 N/A
2:17 pm 14:17 Mostly Cloudy with Nearby Thunderstorms 87 30.6 75 23.9 67 67 SSW 12 19 30.00 1016 10 16 N/A
2:32 pm 14:32 Mostly Cloudy 88 31 75 24 66 66 SSW 15 24 30.00 1016 10 16 N/A
2:53 pm 14:53 Mostly Cloudy 90 32.2 77 25 66 66 SW 12 19 30.02 1017 10 16 N/A
3:53 pm 15:53 Partly Cloudy 89 31.7 76 24.4 65 65 SSW 10 17 29.99 1016 10 16 N/A
4:53 pm 16:53 Mostly Cloudy 87 30.6 75 23.9 67 67 SSW 15 24 29.98 1015 10 16 N/A
5:53 pm 17:53 Partly Cloudy 88 31.1 74 23.3 63 63 SW 14 22 29.97 1015 10 16 N/A
6:53 pm 18:53 Sunny 88 31.1 75 23.9 66 66 SSW 14 22 29.96 1015 10 16 N/A
7:53 pm 19:53 Sunny 85 29.4 73 22.8 68 68 SSW 10 17 29.96 1015 10 16 N/A
8:53 pm 20:53 Clear 80 26.7 75 23.9 85 85 SSW 8 13 29.96 1015 10 16 N/A
9:53 pm 21:53 Clear 78 25.6 74 23.3 87 87 S 5 7 29.96 1015 10 16 N/A
10:53 pm 22:53 Clear 80 26.7 73 22.8 79 79 N N/A 29.96 1014 10 16 N/A
11:53 pm 23:53 Clear 77 25 74 23.3 90 90 N N/A 29.96 1015 10 16 N/A

Powered by AerisWeather